Time,TemperatureF,DewpointF,PressureIn,WindDirection,WindDirectionDegrees,WindSpeedMPH,WindSpeedGustMPH,Humidity,HourlyPrecipIn,Conditions,Clouds,dailyrainin,SoftwareType,DateUTC
2013-01-28 00:06:00,21.2,14.0,30.86,North,0,0.0,-999.9,74,-99.99,,,-99.99,,2013-01-28 05:06:00,
2013-01-28 00:14:00,21.2,14.0,30.86,North,0,0.0,-999.9,74,-99.99,,,-99.99,,2013-01-28 05:14:00,
2013-01-28 00:20:00,21.2,14.0,30.87,North,0,0.0,-999.9,74,-99.99,,,-99.99,,2013-01-28 05:20:00,
2013-01-28 00:24:00,21.2,14.0,30.87,North,0,0.0,-999.9,74,-99.99,,,-99.99,,2013-01-28 05:24:00,
2013-01-28 00:30:00,21.2,14.0,30.86,SSE,162,1.2,-999.9,74,-99.99,,,-99.99,,2013-01-28 05:30:00,
2013-01-28 00:36:00,21.2,14.0,30.86,SSE,162,1.2,-999.9,74,-99.99,,,-99.99,,2013-01-28 05:36:00,
2013-01-28 00:40:00,21.2,14.0,30.86,North,0,0.0,-999.9,74,-99.99,,,-99.99,,2013-01-28 05:40:00,
2013-01-28 00:45:00,21.2,14.0,30.86,North,0,0.0,-999.9,74,-99.99,,,-99.99,,2013-01-28 05:45:00,
2013-01-28 00:50:00,21.2,14.0,30.86,North,0,0.0,-999.9,74,-99.99,,,-99.99,,2013-01-28 05:50:00,
2013-01-28 00:57:00,21.2,14.0,30.86,North,0,0.0,-999.9,74,-99.99,,,-99.99,,2013-01-28 05:57:00,
2013-01-28 01:05:00,21.2,14.0,30.86,North,0,0.0,-999.9,74,-99.99,,,-99.99,,2013-01-28 06:05:00,
2013-01-28 01:10:00,21.2,14.0,30.86,North,0,0.0,-999.9,74,-99.99,,,-99.99,,2013-01-28 06:10:00,
2013-01-28 01:16:00,21.2,14.0,30.86,North,0,0.0,-999.9,74,-99.99,,,-99.99,,2013-01-28 06:16:00,
2013-01-28 01:41:00,23.0,15.8,30.86,North,0,0.0,-999.9,74,-99.99,,,-99.99,,2013-01-28 06:41:00,
2013-01-28 01:46:00,23.0,15.8,30.86,North,0,0.0,-999.9,74,-99.99,,,-99.99,,2013-01-28 06:46:00,
2013-01-28 01:54:00,23.0,15.8,30.86,North,0,0.0,-999.9,74,-99.99,,,-99.99,,2013-01-28 06:54:00,
2013-01-28 02:11:00,23.0,15.8,30.85,North,0,0.0,-999.9,74,-99.99,,,-99.99,,2013-01-28 07:11:00,
2013-01-28 02:18:00,23.0,15.8,30.85,North,0,0.0,-999.9,74,-99.99,,,-99.99,,2013-01-28 07:18:00,
2013-01-28 02:26:00,23.0,15.8,30.84,North,0,0.0,-999.9,74,-99.99,,,-99.99,,2013-01-28 07:26:00,
2013-01-28 02:32:00,23.0,15.8,30.84,North,0,0.0,-999.9,74,-99.99,,,-99.99,,2013-01-28 07:32:00,
2013-01-28 02:38:00,23.0,15.8,30.84,North,0,0.0,-999.9,74,-99.99,,,-99.99,,2013-01-28 07:38:00,
2013-01-28 02:46:00,21.2,14.0,30.84,North,0,0.0,-999.9,74,-99.99,,,-99.99,,2013-01-28 07:46:00,
2013-01-28 02:52:00,21.2,14.0,30.83,North,0,0.0,-999.9,74,-99.99,,,-99.99,,2013-01-28 07:52:00,
2013-01-28 02:58:00,21.2,14.0,30.83,North,0,0.0,-999.9,74,-99.99,,,-99.99,,2013-01-28 07:58:00,
2013-01-28 03:06:00,21.2,15.8,30.83,North,0,0.0,-999.9,80,-99.99,,,-99.99,,2013-01-28 08:06:00,
2013-01-28 03:12:00,21.2,15.8,30.83,North,0,0.0,-999.9,80,-99.99,,,-99.99,,2013-01-28 08:12:00,
2013-01-28 03:18:00,21.2,15.8,30.83,North,0,0.0,-999.9,80,-99.99,,,-99.99,,2013-01-28 08:18:00,
2013-01-28 03:26:00,21.2,15.8,30.83,North,0,0.0,-999.9,80,-99.99,,,-99.99,,2013-01-28 08:26:00,
2013-01-28 03:32:00,21.2,15.8,30.83,North,0,0.0,-999.9,80,-99.99,,,-99.99,,2013-01-28 08:32:00,
2013-01-28 03:38:00,21.2,15.8,30.83,North,0,0.0,-999.9,80,-99.99,,,-99.99,,2013-01-28 08:38:00,
2013-01-28 03:46:00,23.0,17.6,30.83,North,0,0.0,-999.9,80,-99.99,,,-99.99,,2013-01-28 08:46:00,
2013-01-28 03:52:00,23.0,17.6,30.83,North,0,0.0,-999.9,80,-99.99,,,-99.99,,2013-01-28 08:52:00,
2013-01-28 03:58:00,23.0,17.6,30.83,North,0,0.0,-999.9,80,-99.99,,,-99.99,,2013-01-28 08:58:00,
2013-01-28 04:06:00,23.0,17.6,30.82,North,0,0.0,-999.9,80,-99.99,,,-99.99,,2013-01-28 09:06:00,
2013-01-28 04:12:00,23.0,15.8,30.81,North,0,0.0,-999.9,74,-99.99,,,-99.99,,2013-01-28 09:12:00,
2013-01-28 04:18:00,23.0,15.8,30.81,North,0,0.0,-999.9,74,-99.99,,,-99.99,,2013-01-28 09:18:00,
2013-01-28 04:26:00,23.0,15.8,30.81,NNE,26,0.0,-999.9,74,-99.99,,,-99.99,,2013-01-28 09:26:00,
2013-01-28 04:34:00,24.8,17.6,30.81,North,0,0.0,-999.9,74,-99.99,,,-99.99,,2013-01-28 09:34:00,
2013-01-28 04:40:00,24.8,17.6,30.80,North,0,0.0,-999.9,74,-99.99,,,-99.99,,2013-01-28 09:40:00,
2013-01-28 04:48:00,24.8,17.6,30.80,North,0,0.0,-999.9,74,-99.99,,,-99.99,,2013-01-28 09:48:00,
2013-01-28 04:54:00,24.8,17.6,30.80,North,0,0.0,-999.9,74,-99.99,,,-99.99,,2013-01-28 09:54:00,
2013-01-28 05:00:00,23.0,15.8,30.80,NNE,23,0.0,-999.9,74,-99.99,,,-99.99,,2013-01-28 10:00:00,
2013-01-28 05:07:00,23.0,15.8,30.80,NNE,23,0.0,-999.9,74,-99.99,,,-99.99,,2013-01-28 10:07:00,
2013-01-28 05:14:00,24.8,17.6,30.79,North,0,0.0,-999.9,74,-99.99,,,-99.99,,2013-01-28 10:14:00,
2013-01-28 05:20:00,24.8,17.6,30.79,North,0,0.0,-999.9,74,-99.99,,,-99.99,,2013-01-28 10:20:00,
2013-01-28 05:28:00,24.8,17.6,30.79,North,0,0.0,-999.9,74,-99.99,,,-99.99,,2013-01-28 10:28:00,
2013-01-28 05:34:00,24.8,19.4,30.78,North,359,0.0,-999.9,80,-99.99,,,-99.99,,2013-01-28 10:34:00,
2013-01-28 05:40:00,24.8,17.6,30.78,North,0,0.0,-999.9,74,-99.99,,,-99.99,,2013-01-28 10:40:00,
2013-01-28 05:48:00,24.8,17.6,30.78,North,0,0.0,-999.9,74,-99.99,,,-99.99,,2013-01-28 10:48:00,
2013-01-28 05:54:00,24.8,17.6,30.78,North,0,0.0,-999.9,74,-99.99,,,-99.99,,2013-01-28 10:54:00,
2013-01-28 06:00:00,24.8,17.6,30.78,North,0,0.0,-999.9,74,-99.99,,,-99.99,,2013-01-28 11:00:00,
2013-01-28 06:08:00,24.8,17.6,30.78,North,0,0.0,-999.9,74,-99.99,,,-99.99,,2013-01-28 11:08:00,
2013-01-28 06:14:00,24.8,17.6,30.78,North,0,0.0,-999.9,74,-99.99,,,-99.99,,2013-01-28 11:14:00,
2013-01-28 06:20:00,24.8,17.6,30.78,North,0,0.0,-999.9,74,-99.99,,,-99.99,,2013-01-28 11:20:00,
2013-01-28 06:28:00,24.8,17.6,30.78,North,0,0.0,-999.9,74,-99.99,,,-99.99,,2013-01-28 11:28:00,
2013-01-28 06:38:00,24.8,17.6,30.78,North,0,0.0,-999.9,74,-99.99,,,-99.99,,2013-01-28 11:38:00,
2013-01-28 06:44:00,24.8,17.6,30.78,North,0,0.0,-999.9,74,-99.99,,,-99.99,,2013-01-28 11:44:00,
2013-01-28 06:50:00,24.8,17.6,30.78,North,0,0.0,-999.9,74,-99.99,,,-99.99,,2013-01-28 11:50:00,
2013-01-28 06:58:00,24.8,17.6,30.78,North,0,0.0,-999.9,74,-99.99,,,-99.99,,2013-01-28 11:58:00,
2013-01-28 07:04:00,24.8,17.6,30.77,North,0,0.0,-999.9,74,-99.99,,,-99.99,,2013-01-28 12:04:00,
2013-01-28 07:10:00,26.6,17.6,30.78,North,0,0.0,-999.9,69,-99.99,,,-99.99,,2013-01-28 12:10:00,
2013-01-28 07:18:00,26.6,17.6,30.78,North,0,0.0,-999.9,69,-99.99,,,-99.99,,2013-01-28 12:18:00,
2013-01-28 07:24:00,26.6,17.6,30.77,North,0,0.0,-999.9,69,-99.99,,,-99.99,,2013-01-28 12:24:00,
2013-01-28 07:30:00,26.6,17.6,30.77,North,0,0.0,-999.9,69,-99.99,,,-99.99,,2013-01-28 12:30:00,
2013-01-28 07:38:00,26.6,17.6,30.77,North,0,0.0,-999.9,69,-99.99,,,-99.99,,2013-01-28 12:38:00,
2013-01-28 07:44:00,26.6,17.6,30.77,SSE,159,1.2,-999.9,69,-99.99,,,-99.99,,2013-01-28 12:44:00,
2013-01-28 07:54:00,26.6,15.8,30.77,North,0,0.0,-999.9,64,-99.99,,,-99.99,,2013-01-28 12:54:00,
2013-01-28 08:00:00,26.6,15.8,30.76,SSE,158,2.3,-999.9,64,-99.99,,,-99.99,,2013-01-28 13:00:00,
2013-01-28 08:08:00,26.6,15.8,30.76,SSE,158,2.3,-999.9,64,-99.99,,,-99.99,,2013-01-28 13:08:00,
2013-01-28 08:13:00,26.6,15.8,30.77,SSE,163,3.5,-999.9,64,-99.99,,,-99.99,,2013-01-28 13:13:00,
2013-01-28 08:20:00,26.6,15.8,30.77,SSE,148,4.6,-999.9,64,-99.99,,,-99.99,,2013-01-28 13:20:00,
2013-01-28 08:28:00,26.6,15.8,30.77,SSE,148,4.6,-999.9,64,-99.99,,,-99.99,,2013-01-28 13:28:00,
2013-01-28 08:34:00,26.6,17.6,30.77,SSE,149,1.2,-999.9,69,-99.99,,,-99.99,,2013-01-28 13:34:00,
2013-01-28 08:40:00,26.6,17.6,30.77,North,0,0.0,-999.9,69,-99.99,,,-99.99,,2013-01-28 13:40:00,
2013-01-28 08:48:00,26.6,17.6,30.77,North,0,0.0,-999.9,69,-99.99,,,-99.99,,2013-01-28 13:48:00,
2013-01-28 08:54:00,26.6,17.6,30.76,North,0,0.0,-999.9,69,-99.99,,,-99.99,,2013-01-28 13:54:00,
2013-01-28 09:04:00,26.6,17.6,30.76,South,174,0.0,-999.9,69,-99.99,,,-99.99,,2013-01-28 14:04:00,
2013-01-28 09:10:00,26.6,19.4,30.76,SSE,152,1.2,-999.9,74,-99.99,,,-99.99,,2013-01-28 14:10:00,
2013-01-28 09:18:00,26.6,19.4,30.76,SSE,152,1.2,-999.9,74,-99.99,,,-99.99,,2013-01-28 14:18:00,
2013-01-28 09:24:00,26.6,21.2,30.76,SSE,151,1.2,-999.9,80,-99.99,,,-99.99,,2013-01-28 14:24:00,
2013-01-28 09:30:00,26.6,23.0,30.75,South,190,6.9,-999.9,86,-99.99,,,-99.99,,2013-01-28 14:30:00,
2013-01-28 09:38:00,26.6,23.0,30.75,South,190,6.9,-999.9,86,-99.99,,,-99.99,,2013-01-28 14:38:00,
2013-01-28 09:45:00,24.8,21.2,30.75,SSE,150,1.2,-999.9,86,-99.99,,,-99.99,,2013-01-28 14:45:00,
2013-01-28 09:54:00,24.8,23.0,30.74,SE,132,4.6,-999.9,93,-99.99,,,-99.99,,2013-01-28 14:54:00,
2013-01-28 09:58:00,24.8,23.0,30.74,SE,132,4.6,-999.9,93,-99.99,,,-99.99,,2013-01-28 14:58:00,
2013-01-28 10:04:00,26.6,24.8,30.74,SSE,161,5.8,-999.9,93,-99.99,,,-99.99,,2013-01-28 15:04:00,
2013-01-28 10:10:00,26.6,24.8,30.73,SSE,153,4.6,-999.9,93,-99.99,,,-99.99,,2013-01-28 15:10:00,
2013-01-28 10:18:00,26.6,24.8,30.73,SSE,153,4.6,-999.9,93,-99.99,,,-99.99,,2013-01-28 15:18:00,
2013-01-28 10:24:00,26.6,24.8,30.72,SE,136,3.5,-999.9,93,-99.99,,,-99.99,,2013-01-28 15:24:00,
2013-01-28 10:30:00,26.6,24.8,30.72,South,174,4.6,-999.9,93,-99.99,,,-99.99,,2013-01-28 15:30:00,
2013-01-28 10:38:00,26.6,24.8,30.72,South,174,4.6,-999.9,93,-99.99,,,-99.99,,2013-01-28 15:38:00,
2013-01-28 10:44:00,26.6,24.8,30.71,South,188,3.5,-999.9,93,-99.99,,,-99.99,,2013-01-28 15:44:00,
2013-01-28 10:50:00,26.6,24.8,30.71,SSW,202,2.3,-999.9,93,-99.99,,,-99.99,,2013-01-28 15:50:00,
2013-01-28 10:58:00,26.6,24.8,30.71,SSW,202,2.3,-999.9,93,-99.99,,,-99.99,,2013-01-28 15:58:00,
2013-01-28 11:04:00,28.4,26.6,30.70,SSE,168,1.2,-999.9,93,-99.99,,,-99.99,,2013-01-28 16:04:00,
2013-01-28 11:10:00,28.4,26.6,30.70,South,170,4.6,-999.9,93,-99.99,,,-99.99,,2013-01-28 16:10:00,
2013-01-28 11:18:00,28.4,26.6,30.70,South,170,4.6,-999.9,93,-99.99,,,-99.99,,2013-01-28 16:18:00,
2013-01-28 11:24:00,28.4,26.6,30.68,SSE,167,3.5,-999.9,93,-99.99,,,-99.99,,2013-01-28 16:24:00,
2013-01-28 11:30:00,28.4,26.6,30.68,South,178,1.2,-999.9,93,-99.99,,,-99.99,,2013-01-28 16:30:00,
2013-01-28 11:37:00,28.4,26.6,30.68,South,178,1.2,-999.9,93,-99.99,,,-99.99,,2013-01-28 16:37:00,
2013-01-28 11:44:00,28.4,26.6,30.68,SSW,192,2.3,-999.9,93,-99.99,,,-99.99,,2013-01-28 16:44:00,
2013-01-28 11:50:00,28.4,26.6,30.67,South,185,1.2,-999.9,93,-99.99,,,-99.99,,2013-01-28 16:50:00,
2013-01-28 11:58:00,28.4,26.6,30.67,South,185,1.2,-999.9,93,-99.99,,,-99.99,,2013-01-28 16:58:00,
2013-01-28 12:04:00,28.4,26.6,30.65,SSE,158,4.6,-999.9,93,-99.99,,,-99.99,,2013-01-28 17:04:00,
2013-01-28 12:10:00,30.2,28.4,30.63,SSE,166,3.5,-999.9,93,-99.99,,,-99.99,,2013-01-28 17:10:00,
2013-01-28 12:18:00,30.2,28.4,30.63,SSE,166,3.5,-999.9,93,-99.99,,,-99.99,,2013-01-28 17:18:00,
2013-01-28 12:24:00,30.2,28.4,30.62,SSE,164,4.6,-999.9,93,-99.99,,,-99.99,,2013-01-28 17:24:00,
2013-01-28 12:30:00,30.2,28.4,30.61,South,169,4.6,-999.9,93,-99.99,,,-99.99,,2013-01-28 17:30:00,
2013-01-28 12:38:00,30.2,28.4,30.61,South,169,4.6,-999.9,93,-99.99,,,-99.99,,2013-01-28 17:38:00,
2013-01-28 12:48:00,30.2,28.4,30.60,SSW,194,3.5,-999.9,93,-99.99,,,-99.99,,2013-01-28 17:48:00,
2013-01-28 12:55:00,30.2,28.4,30.59,SSW,197,3.5,-999.9,93,-99.99,,,-99.99,,2013-01-28 17:55:00,
2013-01-28 13:00:00,30.2,28.4,30.59,SSW,197,3.5,-999.9,93,-99.99,,,-99.99,,2013-01-28 18:00:00,
2013-01-28 13:08:00,30.2,28.4,30.58,SSW,199,2.3,-999.9,93,-99.99,,,-99.99,,2013-01-28 18:08:00,
2013-01-28 13:14:00,30.2,28.4,30.56,SSW,202,1.2,-999.9,93,-99.99,,,-99.99,,2013-01-28 18:14:00,
2013-01-28 13:24:00,30.2,28.4,30.56,SSE,154,2.3,-999.9,93,-99.99,,,-99.99,,2013-01-28 18:24:00,
2013-01-28 13:34:00,30.2,28.4,30.56,South,186,0.0,-999.9,93,-99.99,,,-99.99,,2013-01-28 18:34:00,
2013-01-28 13:40:00,30.2,28.4,30.56,South,186,0.0,-999.9,93,-99.99,,,-99.99,,2013-01-28 18:40:00,
2013-01-28 13:48:00,30.2,28.4,30.54,SSE,159,6.9,-999.9,93,-99.99,,,-99.99,,2013-01-28 18:48:00,
2013-01-28 13:54:00,32.0,30.2,30.53,South,170,4.6,-999.9,93,-99.99,,,-99.99,,2013-01-28 18:54:00,
2013-01-28 14:00:00,32.0,30.2,30.53,SSE,167,3.5,-999.9,93,-99.99,,,-99.99,,2013-01-28 19:00:00,
2013-01-28 14:08:00,32.0,30.2,30.53,SSE,167,3.5,-999.9,93,-99.99,,,-99.99,,2013-01-28 19:08:00,
2013-01-28 14:14:00,32.0,30.2,30.53,South,178,2.3,-999.9,93,-99.99,,,-99.99,,2013-01-28 19:14:00,
2013-01-28 14:20:00,32.0,32.0,30.50,SSE,159,3.5,-999.9,100,-99.99,,,-99.99,,2013-01-28 19:20:00,
2013-01-28 14:28:00,32.0,32.0,30.50,SSE,159,3.5,-999.9,100,-99.99,,,-99.99,,2013-01-28 19:28:00,
2013-01-28 14:34:00,32.0,32.0,30.50,SSE,159,3.5,-999.9,100,-99.99,,,-99.99,,2013-01-28 19:34:00,
2013-01-28 14:40:00,32.0,32.0,30.49,South,183,1.2,-999.9,100,-99.99,,,-99.99,,2013-01-28 19:40:00,
2013-01-28 14:49:00,32.0,32.0,30.49,South,183,1.2,-999.9,100,-99.99,,,-99.99,,2013-01-28 19:49:00,
2013-01-28 14:54:00,32.0,32.0,30.50,South,176,1.2,-999.9,100,-99.99,,,-99.99,,2013-01-28 19:54:00,
2013-01-28 15:00:00,32.0,32.0,30.49,South,179,4.6,-999.9,100,-99.99,,,-99.99,,2013-01-28 20:00:00,
2013-01-28 15:08:00,32.0,32.0,30.49,South,179,4.6,-999.9,100,-99.99,,,-99.99,,2013-01-28 20:08:00,
2013-01-28 15:14:00,32.0,32.0,30.49,South,181,3.5,-999.9,100,-99.99,,,-99.99,,2013-01-28 20:14:00,
2013-01-28 15:20:00,32.0,32.0,30.48,SSE,154,5.8,-999.9,100,-99.99,,,-99.99,,2013-01-28 20:20:00,
2013-01-28 15:28:00,32.0,32.0,30.48,SSE,154,5.8,-999.9,100,-99.99,,,-99.99,,2013-01-28 20:28:00,
2013-01-28 15:34:00,32.0,32.0,30.48,SSE,163,3.5,-999.9,100,-99.99,,,-99.99,,2013-01-28 20:34:00,
2013-01-28 15:40:00,32.0,32.0,30.47,SSE,153,4.6,-999.9,100,-99.99,,,-99.99,,2013-01-28 20:40:00,
2013-01-28 15:48:00,32.0,32.0,30.47,SSE,153,4.6,-999.9,100,-99.99,,,-99.99,,2013-01-28 20:48:00,
2013-01-28 15:54:00,32.0,32.0,30.47,South,173,3.5,-999.9,100,-99.99,,,-99.99,,2013-01-28 20:54:00,
2013-01-28 16:00:00,32.0,32.0,30.46,South,173,1.2,-999.9,100,-99.99,,,-99.99,,2013-01-28 21:00:00,
2013-01-28 16:09:00,32.0,32.0,30.46,South,173,1.2,-999.9,100,-99.99,,,-99.99,,2013-01-28 21:09:00,
2013-01-28 16:14:00,32.0,32.0,30.46,North,0,0.0,-999.9,100,-99.99,,,-99.99,,2013-01-28 21:14:00,
2013-01-28 16:20:00,32.0,32.0,30.45,SSE,156,2.3,-999.9,100,-99.99,,,-99.99,,2013-01-28 21:20:00,
2013-01-28 16:28:00,32.0,32.0,30.45,SSE,156,2.3,-999.9,100,-99.99,,,-99.99,,2013-01-28 21:28:00,
2013-01-28 16:34:00,32.0,32.0,30.45,SSE,159,1.2,-999.9,100,-99.99,,,-99.99,,2013-01-28 21:34:00,
2013-01-28 16:40:00,32.0,32.0,30.45,SSE,161,2.3,-999.9,100,-99.99,,,-99.99,,2013-01-28 21:40:00,
2013-01-28 16:48:00,32.0,32.0,30.45,SSE,161,2.3,-999.9,100,-99.99,,,-99.99,,2013-01-28 21:48:00,
2013-01-28 16:54:00,33.8,33.8,30.45,North,0,0.0,-999.9,100,-99.99,,,-99.99,,2013-01-28 21:54:00,
2013-01-28 17:00:00,33.8,33.8,30.45,SSE,155,1.2,-999.9,100,-99.99,,,-99.99,,2013-01-28 22:00:00,
2013-01-28 17:08:00,33.8,33.8,30.45,SSE,155,1.2,-999.9,100,-99.99,,,-99.99,,2013-01-28 22:08:00,
2013-01-28 17:14:00,33.8,33.8,30.44,SSE,168,2.3,-999.9,100,-99.99,,,-99.99,,2013-01-28 22:14:00,
2013-01-28 17:20:00,33.8,33.8,30.44,SSE,163,1.2,-999.9,100,-99.99,,,-99.99,,2013-01-28 22:20:00,
2013-01-28 17:28:00,33.8,33.8,30.44,SSE,163,1.2,-999.9,100,-99.99,,,-99.99,,2013-01-28 22:28:00,
2013-01-28 17:34:00,33.8,33.8,30.43,SSE,150,1.2,-999.9,100,-99.99,,,-99.99,,2013-01-28 22:34:00,
2013-01-28 17:40:00,33.8,33.8,30.43,North,0,0.0,-999.9,100,-99.99,,,-99.99,,2013-01-28 22:40:00,
2013-01-28 17:48:00,33.8,33.8,30.43,North,0,0.0,-999.9,100,-99.99,,,-99.99,,2013-01-28 22:48:00,
2013-01-28 17:54:00,33.8,33.8,30.42,SE,145,0.0,-999.9,100,-99.99,,,-99.99,,2013-01-28 22:54:00,
2013-01-28 17:59:00,33.8,33.8,30.42,SE,145,0.0,-999.9,100,-99.99,,,-99.99,,2013-01-28 22:59:00,
2013-01-28 18:13:00,33.8,33.8,30.43,North,0,0.0,-999.9,100,-99.99,,,-99.99,,2013-01-28 23:13:00,
2013-01-28 18:20:00,33.8,33.8,30.43,North,0,0.0,-999.9,100,-99.99,,,-99.99,,2013-01-28 23:20:00,
2013-01-28 18:28:00,33.8,33.8,30.43,SSE,162,0.0,-999.9,100,-99.99,,,-99.99,,2013-01-28 23:28:00,
2013-01-28 19:20:00,33.8,33.8,30.42,SSE,159,3.5,-999.9,100,-99.99,,,-99.99,,2013-01-29 00:20:00,
2013-01-28 19:26:00,33.8,33.8,30.42,SSE,159,3.5,-999.9,100,-99.99,,,-99.99,,2013-01-29 00:26:00,
2013-01-28 19:32:00,33.8,33.8,30.42,SE,124,1.2,-999.9,100,-99.99,,,-99.99,,2013-01-29 00:32:00,
2013-01-28 19:38:00,33.8,33.8,30.42,SE,124,1.2,-999.9,100,-99.99,,,-99.99,,2013-01-29 00:38:00,
2013-01-28 19:45:00,33.8,33.8,30.42,North,0,0.0,-999.9,100,-99.99,,,-99.99,,2013-01-29 00:45:00,
2013-01-28 19:50:00,33.8,33.8,30.41,South,175,2.3,-999.9,100,-99.99,,,-99.99,,2013-01-29 00:50:00,
2013-01-28 19:57:00,33.8,33.8,30.41,South,175,2.3,-999.9,100,-99.99,,,-99.99,,2013-01-29 00:57:00,
2013-01-28 20:03:00,33.8,33.8,30.40,SSE,157,0.0,-999.9,100,-99.99,,,-99.99,,2013-01-29 01:03:00,
2013-01-28 20:09:00,33.8,33.8,30.40,SSE,157,0.0,-999.9,100,-99.99,,,-99.99,,2013-01-29 01:09:00,
2013-01-28 20:16:00,33.8,33.8,30.40,SSE,168,1.2,-999.9,100,-99.99,,,-99.99,,2013-01-29 01:16:00,
2013-01-28 20:24:00,33.8,33.8,30.40,South,169,1.2,-999.9,100,-99.99,,,-99.99,,2013-01-29 01:24:00,
2013-01-28 20:30:00,33.8,33.8,30.40,SSE,151,1.2,-999.9,100,-99.99,,,-99.99,,2013-01-29 01:30:00,
2013-01-28 20:38:00,33.8,33.8,30.40,SSE,151,1.2,-999.9,100,-99.99,,,-99.99,,2013-01-29 01:38:00,
2013-01-28 20:44:00,33.8,33.8,30.40,South,171,5.8,-999.9,100,-99.99,,,-99.99,,2013-01-29 01:44:00,
2013-01-28 20:50:00,33.8,33.8,30.40,SSE,155,1.2,-999.9,100,-99.99,,,-99.99,,2013-01-29 01:50:00,
2013-01-28 20:58:00,33.8,33.8,30.40,SSE,155,1.2,-999.9,100,-99.99,,,-99.99,,2013-01-29 01:58:00,
2013-01-28 21:04:00,33.8,33.8,30.39,SSE,168,4.6,-999.9,100,-99.99,,,-99.99,,2013-01-29 02:04:00,
2013-01-28 21:10:00,33.8,33.8,30.39,North,0,0.0,-999.9,100,-99.99,,,-99.99,,2013-01-29 02:10:00,
2013-01-28 21:18:00,33.8,33.8,30.39,North,0,0.0,-999.9,100,-99.99,,,-99.99,,2013-01-29 02:18:00,
2013-01-28 21:24:00,33.8,33.8,30.39,SSE,165,4.6,-999.9,100,-99.99,,,-99.99,,2013-01-29 02:24:00,
2013-01-28 21:30:00,33.8,33.8,30.38,North,0,0.0,-999.9,100,-99.99,,,-99.99,,2013-01-29 02:30:00,
2013-01-28 21:38:00,33.8,33.8,30.38,North,0,0.0,-999.9,100,-99.99,,,-99.99,,2013-01-29 02:38:00,
2013-01-28 21:44:00,33.8,33.8,30.38,SSW,192,1.2,-999.9,100,-99.99,,,-99.99,,2013-01-29 02:44:00,
2013-01-28 21:50:00,33.8,33.8,30.38,South,177,0.0,-999.9,100,-99.99,,,-99.99,,2013-01-29 02:50:00,
2013-01-28 21:58:00,33.8,33.8,30.38,South,177,0.0,-999.9,100,-99.99,,,-99.99,,2013-01-29 02:58:00,
2013-01-28 22:04:00,33.8,33.8,30.38,North,0,0.0,-999.9,100,-99.99,,,-99.99,,2013-01-29 03:04:00,
2013-01-28 22:10:00,33.8,33.8,30.38,SE,140,1.2,-999.9,100,-99.99,,,-99.99,,2013-01-29 03:10:00,
2013-01-28 22:17:00,33.8,33.8,30.38,SE,140,1.2,-999.9,100,-99.99,,,-99.99,,2013-01-29 03:17:00,
2013-01-28 22:24:00,33.8,33.8,30.37,North,0,0.0,-999.9,100,-99.99,,,-99.99,,2013-01-29 03:24:00,
2013-01-28 22:30:00,33.8,33.8,30.37,North,0,0.0,-999.9,100,-99.99,,,-99.99,,2013-01-29 03:30:00,
2013-01-28 22:38:00,33.8,33.8,30.37,North,0,0.0,-999.9,100,-99.99,,,-99.99,,2013-01-29 03:38:00,
2013-01-28 22:48:00,33.8,33.8,30.37,North,0,0.0,-999.9,100,-99.99,,,-99.99,,2013-01-29 03:48:00,
2013-01-28 22:54:00,33.8,33.8,30.37,North,0,0.0,-999.9,100,-99.99,,,-99.99,,2013-01-29 03:54:00,
2013-01-28 23:00:00,33.8,33.8,30.37,North,0,0.0,-999.9,100,-99.99,,,-99.99,,2013-01-29 04:00:00,
2013-01-28 23:08:00,33.8,33.8,30.37,North,0,0.0,-999.9,100,-99.99,,,-99.99,,2013-01-29 04:08:00,
2013-01-28 23:14:00,33.8,33.8,30.37,North,0,0.0,-999.9,100,-99.99,,,-99.99,,2013-01-29 04:14:00,
2013-01-28 23:20:00,33.8,33.8,30.37,North,0,0.0,-999.9,100,-99.99,,,-99.99,,2013-01-29 04:20:00,
2013-01-28 23:28:00,33.8,33.8,30.37,North,0,0.0,-999.9,100,-99.99,,,-99.99,,2013-01-29 04:28:00,
2013-01-28 23:34:00,33.8,33.8,30.37,North,0,0.0,-999.9,100,-99.99,,,-99.99,,2013-01-29 04:34:00,
2013-01-28 23:40:00,33.8,33.8,30.37,North,0,0.0,-999.9,100,-99.99,,,-99.99,,2013-01-29 04:40:00,
2013-01-28 23:48:00,33.8,33.8,30.37,North,0,0.0,-999.9,100,-99.99,,,-99.99,,2013-01-29 04:48:00,
2013-01-28 23:54:00,33.8,33.8,30.38,North,0,0.0,-999.9,100,-99.99,,,-99.99,,2013-01-29 04:54:00,